x

St. Joseph, Mi (sjom4) Weather Station

2:00pm - Sat 28th Feb 2015 All times are CST. -6 hours from GMT.

  • Wind
    7mph, 10mph gusts
  • Air Temp 22°f
  • Sea Pressure 1037.3mb
  • St. Joseph, Mi
  • St. Joseph, Mi

More Historic Weather Station data

Upgrade to MSW Pro to gain access to the past 30 days of data for over 8000 Wavebouys and Weather Stations around the globe.

Join Pro

Comparision Forecast

View Surf forecast
   
Sat 02/28 2:00pm 7 10 mph 1037.3mb 22f
1:54pm 5 13 mph 1037.9mb 23f
1:50pm 3 9 mph 1037.3mb 23f
1:40pm 6 9 mph 1037.9mb 23f
1:30pm 8 13 mph 1037.9mb 21f
1:20pm 3 8 mph 1038.3mb 22f
1:10pm 5 10 mph 1038.6mb 22f
1:00pm 1 8 mph 1038.9mb 21f
12:53pm 5 13 mph 1038.3mb 19f
12:50pm 7 13 mph 1038.9mb 19f
12:40pm 6 10 mph 1039.3mb 21f
12:30pm 7 10 mph 1038.9mb 19f
12:20pm 3 11 mph 1038.9mb 19f
12:10pm 7 13 mph 1039.3mb 21f
12:00pm 3 10 mph 1039.6mb 20f
11:53am 8 13 mph 1040.6mb 19f
11:50am 6 9 mph 1040.3mb 19f
11:40am 3 11 mph 1040.6mb 19f
11:30am 6 13 mph 1041mb 19f
11:20am 6 8 mph 1040mb 19f
11:10am 6 7 mph 1040.3mb 18f
11:00am 6 9 mph 1041mb 17f
10:52am 6 10 mph 1041mb 16f
10:50am 6 8 mph 1041.3mb 16f
10:40am 5 9 mph 1040.6mb 17f
10:30am 3 9 mph 1041mb 16f
10:20am 5 10 mph 1041mb 15f
10:10am 5 7 mph 1040.6mb 15f
10:00am 7 10 mph 1041.3mb 15f
9:52am 6 10 mph 1040.6mb 14f
9:50am 6 8 mph 1041mb 14f
9:40am 3 10 mph 1041mb 13f
9:30am 5 7 mph 1041.3mb 13f
9:20am 3 9 mph 1040.6mb 12f
9:10am 3 8 mph 1040.6mb 12f
9:00am 6 8 mph 1040.6mb 11f
8:52am 5 10 mph 1041mb 10f
8:50am 5 8 mph 1041.7mb 10f
8:40am 3 7 mph 1041.7mb 10f
8:30am 5 7 mph 1041.3mb 9f
8:20am 5 9 mph 1040.6mb 8f
8:10am 5 9 mph 1041.3mb 7f
8:00am 5 10 mph 1040.6mb 6f
7:51am 6 10 mph 1041mb 6f
7:50am 6 10 mph 1041.3mb 6f
7:40am 6 9 mph 1041.3mb 5f
7:30am 6 9 mph 1041.3mb 4f
7:20am 6 8 mph 1040.3mb 4f
7:10am 6 9 mph 1040.6mb 3f
7:00am 6 10 mph 1040.3mb 2f
6:51am 7 10 mph 1040.6mb 2f
6:50am 7 10 mph 1040.3mb 2f
6:40am 7 10 mph 1040mb 1f
6:30am 6 9 mph 1040.6mb 2f
6:20am 6 10 mph 1039.6mb 2f
6:10am 7 8 mph 1039.3mb 2f
6:00am 7 9 mph 1040.3mb 2f
5:50am 6 11 mph 1039.3mb 3f
5:40am 6 9 mph 1039.3mb 2f
5:30am 7 10 mph 1039.3mb 2f
5:20am 7 11 mph 1040mb 2f
5:10am 7 10 mph 1039.6mb 2f
5:00am 8 11 mph 1038.9mb 1f
4:50am 6 9 mph 1039.3mb 2f
4:40am 7 9 mph 1039.3mb 2f
4:30am 5 8 mph 1039.3mb 2f
4:20am 6 8 mph 1038.9mb 2f
4:10am 6 9 mph 1038.9mb 2f
4:00am 6 9 mph 1038.6mb 3f
3:50am 5 10 mph 1038.6mb 3f
3:40am 6 10 mph 1038.6mb 4f
3:30am 6 10 mph 1038.3mb 4f
3:20am 6 10 mph 1038.3mb 5f
3:10am 6 10 mph 1038.6mb 6f
3:00am 7 9 mph 1038.9mb 6f
2:50am 6 9 mph 1038.3mb 5f
2:49am 6 13 mph 1038.6mb 6f
2:40am 6 9 mph 1038.6mb 6f
2:30am 6 11 mph 1038.9mb 6f
2:20am 7 9 mph 1038.9mb 7f
2:10am 6 11 mph 1038.6mb 6f
2:00am 7 13 mph 1038.6mb 5f
1:50am 7 11 mph 1038.6mb 5f
1:49am 7 14 mph 1039.6mb 5f
1:40am 6 10 mph 1038.6mb 5f
1:30am 7 11 mph 1039.3mb 6f
1:20am 7 11 mph 1039.3mb 8f
1:10am 8 14 mph 1039.3mb 9f
1:00am 8 11 mph 1038.9mb 9f
12:50am 8 10 mph 1038.9mb 8f
12:48am 7 11 mph 1038.3mb 9f
12:40am 8 11 mph 1038.9mb 8f
12:30am 8 11 mph 1038.9mb 9f
12:20am 9 11 mph 1038.6mb 9f
12:10am 7 11 mph 1038.3mb 9f
12:00am 7 11 mph 1038.3mb 8f
Fri 02/27 11:50pm 7 10 mph 1038.3mb 8f
11:48pm 6 14 mph 1038.3mb 9f
11:40pm 7 10 mph 1038.6mb 9f
11:30pm 8 14 mph 1038.3mb 9f
11:20pm 10 14 mph 1037.9mb 9f
11:10pm 8 13 mph 1037.9mb 9f
11:00pm 9 14 mph 1037.9mb 9f
10:50pm 10 14 mph 1038.9mb 9f
10:48pm 9 15 mph 1037.9mb 9f
10:40pm 10 14 mph 1038.6mb 9f
10:30pm 10 15 mph 1038.3mb 10f
10:20pm 9 15 mph 1037.9mb 10f
10:10pm 10 15 mph 1038.6mb 10f
10:00pm 9 14 mph 1038.9mb 11f
9:50pm 10 16 mph 1038.6mb 10f
9:47pm 11 17 mph 1038.9mb 10f
9:40pm 11 15 mph 1037.9mb 10f
9:30pm 11 15 mph 1038.9mb 11f
9:20pm 11 16 mph 1038.6mb 11f
9:10pm 11 17 mph 1038.3mb 11f
9:00pm 11 15 mph 1037.6mb 11f
8:50pm 11 16 mph 1038.3mb 11f
8:47pm 11 16 mph 1038.3mb 11f
8:40pm 10 15 mph 1037.9mb 11f
8:30pm 9 14 mph 1037.3mb 12f
8:20pm 9 13 mph 1037.3mb 12f
8:10pm 6 9 mph 1037.9mb 11f
8:00pm 6 8 mph 1036.9mb 11f
7:50pm 5 9 mph 1037.6mb 12f
7:46pm 5 11 mph 1037.3mb 12f
7:40pm 5 9 mph 1037.9mb 13f
7:30pm 6 10 mph 1036.9mb 13f
7:20pm 7 9 mph 1037.6mb 13f
7:10pm 7 11 mph 1037.3mb 13f
7:00pm 5 8 mph 1036.6mb 13f
6:50pm 5 8 mph 1037.3mb 13f
6:46pm 5 8 mph 1036.9mb 13f
6:40pm 5 7 mph 1036.6mb 13f
6:30pm 5 8 mph 1037.3mb 13f
6:20pm 3 6 mph 1036.2mb 13f
6:10pm 2 5 mph 1036.9mb 13f
6:00pm 3 5 mph 1035.9mb 14f
5:50pm 2 6 mph 1036.6mb 14f
5:46pm 5 9 mph 1035.9mb 14f
5:40pm 3 8 mph 1036.2mb 14f
5:30pm 6 9 mph 1035.9mb 14f
5:20pm 7 9 mph 1036.2mb 14f
5:10pm 8
mph
1036.6mb 15f
5:00pm 6 9 mph 1035.9mb 15f
4:50pm 8 10 mph 1035.9mb 15f
4:45pm 8 10 mph 1036.6mb 15f
4:40pm 9 10 mph 1036.6mb 15f
4:30pm 8 10 mph 1036.6mb 15f
4:20pm 8 9 mph 1035.6mb 15f
4:10pm 7 9 mph 1035.6mb 18f
4:00pm 8 10 mph 1036.2mb 17f
3:50pm 8 10 mph 1036.2mb 17f
3:45pm 8 13 mph 1036.2mb 17f
3:40pm 9 10 mph 1035.9mb 17f
3:30pm 9 11 mph 1035.6mb 18f
3:20pm 8 11 mph 1035.9mb 17f
3:10pm 10 13 mph 1036.6mb 17f
3:00pm 10 13 mph 1036.2mb 17f
2:50pm 9 13 mph 1035.9mb 18f
2:44pm 10 17 mph 1035.9mb 18f
2:40pm 11 14 mph 1035.9mb 18f
2:30pm 11 15 mph 1036.6mb 18f
2:20pm 11 15 mph 1036.2mb 19f
2:10pm 13 17 mph 1035.6mb 18f
2:00pm 11 16 mph 1035.9mb 18f
1:50pm 14 17 mph 1036.2mb 19f
1:44pm 13 21 mph 1035.9mb 19f
1:40pm 13 15 mph 1035.9mb 19f
1:30pm 11 16 mph 1035.6mb 19f
1:20pm 13 21 mph 1035.9mb 17f
1:10pm 14 16 mph 1036.2mb 18f
1:00pm 13 17 mph 1035.9mb 18f
12:50pm 13 17 mph 1035.6mb 18f
12:44pm 13 20 mph 1036.2mb 18f
12:40pm 11 17 mph 1035.6mb 18f
12:30pm 14 16 mph 1036.2mb 18f
12:20pm 14 18 mph 1036.6mb 18f
12:10pm 15 17 mph 1036.2mb 18f
12:00pm 15 20 mph 1035.6mb 19f
11:50am 15 17 mph 1036.2mb 20f
11:43am 14 20 mph 1035.6mb 19f
11:40am 10 20 mph 1036.6mb 19f
11:30am 10 15 mph 1036.2mb 18f
11:20am 13 16 mph 1035.6mb 15f
11:10am 13 15 mph 1036.6mb 15f
11:00am 15 16 mph 1035.6mb 14f
10:50am 11 15 mph 1035.6mb 14f
10:43am 11 15 mph 1035.9mb 14f
10:40am 13 15 mph 1036.2mb 14f
10:30am 11 14 mph 1035.2mb 14f
10:20am 11 14 mph 1035.9mb 13f
10:10am 11 15 mph 1035.6mb 13f
10:00am 9 11 mph 1035.6mb 14f
9:50am 8 9 mph 1034.9mb 14f
9:42am 7 10 mph 1035.9mb 14f
9:40am 8 10 mph 1035.9mb 14f
9:30am 7 9 mph 1034.9mb 13f
9:20am 5 9 mph 1035.2mb 13f
9:10am 6 9 mph 1035.6mb 12f
9:00am 6 8 mph 1035.6mb 11f
8:50am 5 8 mph 1034.5mb 11f
8:42am 6 9 mph 1034.2mb 10f
8:40am 5 8 mph 1034.2mb 10f
8:30am 3 7 mph 1034.2mb 9f
8:20am 5 7 mph 1034.2mb 8f
8:10am 5 9 mph 1034.5mb 7f
8:00am 3 7 mph 1034.2mb 7f
7:50am 5 8 mph 1033.9mb 6f
7:42am 6 8 mph 1034.9mb 6f
7:40am 3 8 mph 1034.2mb 6f
7:30am 5 8 mph 1033.5mb 6f
7:20am 5 8 mph 1034.2mb 5f
7:10am 3 7 mph 1034.2mb 5f
7:00am 3 7 mph 1033.5mb 5f
6:50am 5 8 mph 1033.9mb 5f
6:41am 6 9 mph 1033.5mb 4f
6:40am 6 8 mph 1032.8mb 4f
6:30am 6 9 mph 1033.5mb 4f
6:20am 6 8 mph 1033.5mb 4f
6:10am 3 7 mph 1033.5mb 3f
6:00am 3 6 mph 1032.5mb 3f
5:50am 2 6 mph 1033.2mb 4f
5:41am 5 7 mph 1032.2mb 4f
5:40am 5 7 mph 1032.8mb 4f
5:30am 3 6 mph 1032.8mb 4f
5:20am 3 7 mph 1032.2mb 4f
5:10am 3 6 mph 1032.5mb 4f
5:00am 3 6 mph 1032.8mb 4f
4:50am 3 5 mph 1032.5mb 4f
4:40am 2 3 mph 1032.5mb 3f
4:30am  -  2 mph 1031.8mb 3f
4:20am  -  2 mph 1032.2mb 3f
4:10am  -  3 mph 1031.5mb 3f
4:00am  -  3 mph 1031.8mb 3f
3:50am  -  3 mph 1031.8mb 4f
3:40am  -  3 mph 1031.2mb 4f
3:30am  -  3 mph 1031.8mb 4f
3:20am  -  2 mph 1031.5mb 4f
3:10am  -  2 mph 1031.2mb 4f
3:00am 2 3 mph 1030.8mb 5f
2:50am 2 3 mph 1031.5mb 5f
2:40am  -  5 mph 1030.5mb 5f
2:39am 2 5 mph 1031.2mb 5f
2:30am 1 5 mph 1030.5mb 5f
2:20am  -  2 mph 1030.5mb 5f
2:10am  -  3 mph 1030.8mb 5f
2:00am  -  2 mph 1030.5mb 5f
1:50am  -  3 mph 1030.1mb 6f
1:40am 2 3 mph 1029.8mb 6f
1:39am 2 6 mph 1030.5mb 6f
1:30am 2 6 mph 1030.5mb 6f
1:20am 2 5 mph 1030.5mb 6f
1:10am  -  6 mph 1030.5mb 6f
1:00am  -  6 mph 1030.5mb 6f
12:50am 1 6 mph 1030.5mb 6f
12:40am 2 7 mph 1030.1mb 6f
12:39am 3 9 mph 1030.1mb 6f
12:30am 3 9 mph 1030.1mb 7f
12:20am 3 7 mph 1029.8mb 7f
12:10am 3 5 mph 1029.5mb 7f
12:00am 2 3 mph 1029.8mb 7f
Thu 02/26 11:50pm 2 7 mph 1029.8mb 8f
11:40pm 2 5 mph 1030.1mb 8f
11:38pm 1 8 mph 1029.5mb 8f
11:30pm 3 8 mph 1029.1mb 9f
11:20pm 3 8 mph 1029.1mb 9f
11:10pm 2 8 mph 1029.8mb 10f
11:00pm 3 7 mph 1029.8mb 11f
10:50pm 3 7 mph 1028.8mb 11f
10:40pm 3 7 mph 1029.1mb 11f
10:38pm 3 13 mph 1029.5mb 11f
10:30pm 3 6 mph 1029.5mb 11f
10:20pm 3 7 mph 1029.1mb 12f
10:10pm 7 11 mph 1029.1mb 12f
10:00pm 9 11 mph 1029.5mb 13f
9:50pm 7 13 mph 1028.8mb 13f
9:40pm 9 17 mph 1028.4mb 13f
9:37pm 11 21 mph 1029.1mb 13f
9:30pm 11 18 mph 1029.1mb 13f
9:20pm 13 20 mph 1028.4mb 13f
9:10pm 13 18 mph 1027.8mb 13f
9:00pm 13 20 mph 1027.8mb 13f
8:50pm 11 21 mph 1028.4mb 13f
8:40pm 13 18 mph 1028.1mb 13f
8:37pm 14 21 mph 1028.1mb 13f
8:30pm 10 18 mph 1027.4mb 13f
8:20pm 13 17 mph 1027.8mb 13f
8:10pm 11 16 mph 1027.4mb 13f
8:00pm 13 17 mph 1027.4mb 13f
7:50pm 13 21 mph 1028.1mb 13f
7:40pm 13 18 mph 1027.4mb 13f
7:37pm 14 21 mph 1028.1mb 13f
7:30pm 13 18 mph 1027.8mb 13f
7:20pm 10 21 mph 1027.8mb 14f
7:10pm 15 20 mph 1026.8mb 13f
7:00pm 11 21 mph 1026.8mb 14f
6:50pm 10 17 mph 1027.1mb 14f
6:40pm 13 18 mph 1026.4mb 14f
6:36pm 14 20 mph 1026.4mb 14f
6:30pm 11 17 mph 1027.1mb 13f
6:20pm 15 20 mph 1026.4mb 14f
6:10pm 13 17 mph 1026.8mb 14f
6:00pm 11 17 mph 1026.1mb 14f
5:50pm 14 20 mph 1026.1mb 14f
5:40pm 13 18 mph 1026.4mb 14f
5:36pm 13 21 mph 1026.1mb 14f
5:30pm 14 18 mph 1025.7mb 14f
5:20pm 11 21 mph 1026.1mb 14f
5:10pm 13 17 mph 1025.4mb 14f
5:00pm 13 18 mph 1026.1mb 14f
4:50pm 10 16 mph 1025.4mb 14f
4:40pm 15 18 mph 1025.7mb 14f
4:35pm 13 20 mph 1026.1mb 14f
4:30pm 14 17 mph 1025.1mb 14f
4:20pm 11 20 mph 1025.7mb 14f
4:10pm 14 20 mph 1025.7mb 14f
4:00pm 14 18 mph 1024.7mb 14f
3:50pm 15 18 mph 1025.4mb 14f
3:40pm 14 16 mph 1024.7mb 13f
3:35pm 13 18 mph 1024.7mb 13f
3:30pm 13 16 mph 1025.1mb 13f
3:20pm 11 16 mph 1025.1mb 13f
3:10pm 14 16 mph 1024.4mb 13f
3:00pm 13 18 mph 1025.1mb 13f
2:50pm 13 18 mph 1024.4mb 13f
2:40pm 15 20 mph 1024.4mb 13f
2:35pm 15 23 mph 1024mb 13f
2:30pm 15 22 mph 1024.7mb 13f
2:20pm 15 21 mph 1024mb 13f
2:10pm 18 22 mph 1024mb 13f
2:00pm 18 23 mph 1024.4mb 13f
1:50pm 14 18 mph 1023.7mb 13f
1:40pm 15 18 mph 1024mb 13f
1:30pm 14 18 mph 1024.4mb 13f
1:20pm 13 18 mph 1023.7mb 13f
1:10pm 16 20 mph 1024mb 13f
1:00pm 15 18 mph 1024mb 13f
12:50pm 13 17 mph 1023.7mb 13f
12:40pm 13 16 mph 1023.7mb 13f
12:30pm 13 16 mph 1024mb 12f
12:20pm 13 16 mph 1023.4mb 12f
12:10pm 10 14 mph 1024mb 12f
12:00pm 10 14 mph 1023.7mb 12f
11:50am 10 15 mph 1024mb 12f
11:40am 11 16 mph 1023.7mb 11f
11:33am 11 16 mph 1023.7mb 11f
11:30am 11 15 mph 1023.4mb 11f
11:20am 11 15 mph 1024mb 12f
11:10am 10 13 mph 1023.4mb 11f
11:00am 9 14 mph 1024mb 11f
10:50am 10 13 mph 1023.4mb 11f
10:40am 10 14 mph 1024mb 11f
10:33am 10 15 mph 1024mb 11f
10:30am 9 13 mph 1023mb 11f
10:20am 11 14 mph 1023.7mb 11f
10:10am 9 15 mph 1023mb 11f
10:00am 9 13 mph 1023.7mb 11f
9:50am 13 14 mph 1023.4mb 10f
9:40am 9 13 mph 1023mb 10f
9:33am 8 14 mph 1022.7mb 10f
9:30am 10 13 mph 1023.4mb 10f
9:20am 11 14 mph 1022.7mb 10f
9:10am 9 11 mph 1023mb 10f
9:00am 9 14 mph 1023.4mb 10f
8:50am 10 14 mph 1022.4mb 10f
8:40am 9 14 mph 1022.7mb 10f
8:32am 9 16 mph 1022.4mb 10f
8:30am 9 14 mph 1023mb 10f
8:20am 8 11 mph 1023mb 10f
8:10am 9 16 mph 1022.4mb 10f
8:00am 9 13 mph 1022.7mb 10f
7:50am 9 14 mph 1022.7mb 9f
7:40am 8 11 mph 1022.7mb 10f
7:32am 7 14 mph 1022mb 10f
7:30am 5 9 mph 1021.7mb 10f
7:20am 6 10 mph 1022mb 10f
7:10am 7 10 mph 1022mb 10f
7:00am 8 13 mph 1021.7mb 10f
6:50am 6 13 mph 1021mb 10f
6:40am 6 14 mph 1021.3mb 10f
6:31am 7 14 mph 1021.3mb 10f
6:30am 7 10 mph 1021.3mb 10f
6:20am 7 13 mph 1020.7mb 10f
6:10am 9 14 mph 1020.7mb 11f
6:00am 6 11 mph 1020.7mb 11f
5:50am 8 11 mph 1020mb 11f
5:40am 8 11 mph 1019.3mb 11f
5:31am 8 14 mph 1020mb 12f
5:30am 8 14 mph 1020.3mb 12f
5:20am 6 10 mph 1019.3mb 12f
5:10am 8 13 mph 1019.3mb 12f
5:00am 5 14 mph 1019.6mb 13f
4:50am 7 11 mph 1019mb 13f
4:40am 9 13 mph 1019.3mb 13f
4:31am 7 10 mph 1019.6mb 13f
4:30am 7 10 mph 1019.6mb 13f
4:20am 5 8 mph 1018.6mb 13f
4:10am 6 9 mph 1019.3mb 13f
4:00am 5 10 mph 1018.6mb 13f
3:50am 5 10 mph 1018.3mb 13f
3:40am 7 10 mph 1019mb 14f
3:30am 5 9 mph 1017.9mb 14f
3:20am 6 10 mph 1018.6mb 14f
3:10am 5 10 mph 1018.6mb 14f
3:00am 5 9 mph 1017.6mb 14f
2:50am 5 9 mph 1018.3mb 14f
2:40am 5 10 mph 1017.6mb 14f
2:30am 5 10 mph 1018.6mb 14f
2:20am 6 9 mph 1017.9mb 15f
2:10am 5 10 mph 1018.6mb 15f
2:00am 8 11 mph 1017.9mb 15f
1:50am 6 10 mph 1017.9mb 15f
1:40am 5 7 mph 1018.3mb 15f
1:30am 6 10 mph 1017.9mb 15f
1:29am 7 11 mph 1017.9mb 15f
1:20am 6 11 mph 1017.9mb 15f
1:10am 6 11 mph 1017.3mb 15f
1:00am 7 10 mph 1017.9mb 15f
12:50am 6 11 mph 1017.3mb 15f
12:40am 6 11 mph 1017.9mb 15f
12:30am 7 10 mph 1017.3mb 16f
12:29am 7 10 mph 1017.6mb 16f
12:20am 5 8 mph 1017.6mb 16f
12:10am 3 8 mph 1016.9mb 16f
12:00am 5 8 mph 1017.6mb 16f
Wed 02/25 11:50pm 5 9 mph 1017.6mb 16f
11:40pm 6 9 mph 1017.6mb 16f
11:30pm 6 9 mph 1016.9mb 16f
11:29pm 5 9 mph 1017.3mb 16f
11:20pm 5 9 mph 1017.9mb 16f
11:10pm 5 8 mph 1016.9mb 16f
11:00pm 6 8 mph 1017.9mb 16f
10:50pm 5 9 mph 1017.3mb 16f
10:40pm 5 8 mph 1017.9mb 16f
10:30pm 5 8 mph 1017.3mb 16f
10:28pm 5 10 mph 1017.3mb 16f
10:20pm 6 9 mph 1017.9mb 16f
10:10pm 5 10 mph 1017.3mb 16f
10:00pm 5 9 mph 1018.3mb 17f
9:50pm 6 9 mph 1017.6mb 17f
9:40pm 6 8 mph 1018.3mb 17f
9:30pm 5 9 mph 1017.9mb 17f
9:28pm 6 13 mph 1017.6mb 17f
9:20pm 7 10 mph 1017.9mb 17f
9:10pm 5 9 mph 1017.9mb 17f
9:00pm 5 8 mph 1017.3mb 17f
8:50pm 6 10 mph 1017.9mb 17f
8:40pm 6 13 mph 1017.3mb 17f
8:30pm 7 11 mph 1017.9mb 18f
8:27pm 8 13 mph 1016.9mb 18f
8:20pm 6 10 mph 1016.9mb 18f
8:10pm 7 11 mph 1016.9mb 18f
8:00pm 7 13 mph 1017.6mb 18f
7:50pm 7 10 mph 1016.6mb 18f
7:40pm 7 13 mph 1017.3mb 18f
7:30pm 8 13 mph 1017.3mb 18f
7:27pm 7 13 mph 1017.3mb 18f
7:20pm 7 11 mph 1016.3mb 18f
7:10pm 7 13 mph 1017.3mb 18f
7:00pm 8 13 mph 1016.3mb 18f
6:50pm 8 10 mph 1016.3mb 19f
6:40pm 7 11 mph 1016.9mb 18f
6:30pm 7 11 mph 1015.9mb 18f
6:27pm 7 14 mph 1016.9mb 18f
6:20pm 7 13 mph 1016.9mb 19f
6:10pm 9 14 mph 1016.9mb 19f
6:00pm 8 13 mph 1016.3mb 19f
5:50pm 8 11 mph 1016.3mb 19f
5:40pm 8 13 mph 1016.6mb 19f
5:30pm 8 11 mph 1016.6mb 19f
5:26pm 6 13 mph 1015.9mb 20f
5:20pm 7 13 mph 1015.6mb 20f
5:10pm 7 10 mph 1016.3mb 20f
5:00pm 7 11 mph 1016.3mb 20f
4:50pm 6 10 mph 1015.6mb 20f
4:40pm 7 13 mph 1014.9mb 20f
4:30pm 10 13 mph 1015.2mb 20f
4:26pm 8 11 mph 1014.9mb 20f
4:20pm 7 11 mph 1015.6mb 20f
4:10pm 7 11 mph 1015.6mb 20f
4:00pm 10 11 mph 1015.2mb 20f
3:50pm 7 11 mph 1014.9mb 20f
3:40pm 7 9 mph 1015.6mb 21f
3:30pm 7 9 mph 1015.6mb 21f
3:25pm 8 10 mph 1014.9mb 21f
3:20pm 8 10 mph 1015.6mb 21f
3:10pm 7 9 mph 1015.2mb 21f
3:00pm 6 7 mph 1014.9mb 21f
2:50pm 7 9 mph 1014.9mb 21f
2:40pm 7 8 mph 1014.6mb 21f
2:30pm 5 7 mph 1014.9mb 21f
2:25pm 5 9 mph 1015.6mb 21f
2:20pm 5 6 mph 1015.2mb 21f
2:10pm 5 8 mph 1014.9mb 21f
2:00pm 7 8 mph 1014.6mb 21f
1:50pm 7 9 mph 1014.9mb 21f
1:40pm 5 7 mph 1015.2mb 22f
1:30pm 5 6 mph 1015.6mb 22f
1:25pm 5 7 mph 1015.9mb 22f
1:20pm 5 7 mph 1015.6mb 22f
1:10pm 5 6 mph 1015.9mb 22f
1:00pm 2 6 mph 1016.3mb 23f
12:50pm 3 6 mph 1016.3mb 23f
12:40pm 2 5 mph 1016.6mb 26f
12:30pm 2 3 mph 1016.6mb 30f
12:24pm  -  6 mph 1016.3mb 35f
12:20pm 2 3 mph 1016.6mb 35f
12:10pm 2 3 mph 1016.9mb 33f
12:00pm 2 3 mph 1016.9mb 31f
11:50am 2 6 mph 1017.3mb 31f
11:40am  -  5 mph 1017.6mb 28f
11:30am 3 5 mph 1017.6mb 30f
11:24am 2 10 mph 1016.9mb 26f
11:20am  -  2 mph 1017.3mb 26f
11:10am 3 9 mph 1017.3mb 23f
11:00am 2 7 mph 1016.9mb 25f
10:50am 2 7 mph 1017.3mb 26f
10:40am 6 10 mph 1016.9mb 26f
10:30am 1 6 mph 1016.9mb 26f
10:23am 5 9 mph 1016.9mb 23f
10:20am 5 9 mph 1016.9mb 23f
10:10am 5 7 mph 1016.9mb 24f
10:00am 1 7 mph 1017.3mb 23f
9:50am 1 6 mph 1016.9mb 22f
9:40am 2 6 mph 1016.3mb 20f
9:30am 2 6 mph 1015.9mb 21f
9:23am 2 7 mph 1016.6mb 20f
9:20am 2 6 mph 1016.6mb 20f
9:10am 2 7 mph 1016.9mb 20f
9:00am 2 7 mph 1015.9mb 19f
8:50am 2 6 mph 1016.3mb 19f
8:40am 2 6 mph 1016.9mb 18f
8:30am  -  5 mph 1016.3mb 18f
8:23am 2 6 mph 1016.9mb 17f
8:20am 2 5 mph 1016.9mb 17f
8:10am 2 5 mph 1016.6mb 17f
8:00am 2 6 mph 1015.9mb 17f
7:50am 2 6 mph 1016.6mb 17f
7:40am 1 5 mph 1015.6mb 17f
7:30am  -  5 mph 1015.9mb 17f
7:22am  -  5 mph 1015.9mb 17f
7:20am 1 3 mph 1015.2mb 17f
7:10am 2 5 mph 1015.6mb 17f
7:00am 2 3 mph 1014.6mb 17f
6:50am  -  3 mph 1014.9mb 17f
6:40am 1 5 mph 1014.6mb 17f
6:30am 2 5 mph 1014.2mb 16f
6:20am 3 6 mph 1014.2mb 16f
6:10am 3 8 mph 1013.5mb 17f
6:00am 7 10 mph 1014.6mb 17f
5:50am 8 13 mph 1013.5mb 18f
5:40am 9 14 mph 1014.2mb 18f
5:30am 10 17 mph 1014.2mb 19f
5:21am 13 18 mph 1014.2mb 19f
5:20am 13 16 mph 1013.2mb 19f
5:10am 13 16 mph 1014.2mb 19f
5:00am 11 16 mph 1013.5mb 19f
4:50am 11 17 mph 1013.2mb 20f
4:40am 13 18 mph 1013.9mb 20f
4:30am 14 18 mph 1012.9mb 20f
4:21am 13 20 mph 1013.5mb 20f
4:20am 13 18 mph 1013.2mb 20f
4:10am 14 20 mph 1013.5mb 20f
4:00am 13 17 mph 1012.5mb 20f
3:50am 11 17 mph 1012.9mb 21f
3:40am 13 20 mph 1012.9mb 21f
3:30am 11 17 mph 1012.5mb 21f
3:21am 13 21 mph 1011.9mb 21f
3:20am 13 17 mph 1011.5mb 21f
3:10am 15 20 mph 1012.2mb 21f
3:00am 13 18 mph 1011.5mb 21f
2:50am 11 18 mph 1010.8mb 21f
2:40am 14 21 mph 1011.5mb 21f
2:30am 14 20 mph 1011.2mb 21f
2:20am 7 18 mph 1010.5mb 21f
2:10am 9 17 mph 1010.8mb 21f
2:00am 10 16 mph 1011.2mb 21f
1:50am 9 15 mph 1010.5mb 21f
1:40am 11 17 mph 1010.5mb 21f
1:30am 13 18 mph 1010.5mb 21f
1:20am 13 23 mph 1010.5mb 21f
1:10am 13 21 mph 1009.8mb 22f
1:00am 11 22 mph 1009.8mb 23f
12:50am 16 22 mph 1009.5mb 24f
12:40am 16 23 mph 1009.8mb 25f
12:30am 15 22 mph 1009.8mb 25f
12:20am 13 23 mph 1009.1mb 26f
12:19am 16 28 mph 1009.8mb 26f
12:10am 15 23 mph 1008.8mb 26f
12:00am 17 23 mph 1009.1mb 26f
Tue 02/24 11:50pm 20 28 mph 1009.1mb 26f
11:40pm 17 24 mph 1009.1mb 27f
11:30pm 13 20 mph 1008.8mb 27f
11:20pm 15 23 mph 1008.1mb 27f
11:19pm 14 25 mph 1008.5mb 28f
11:10pm 16 23 mph 1008.1mb 28f
11:00pm 16 25 mph 1008.5mb 28f
10:50pm 15 22 mph 1008.5mb 28f
10:40pm 14 18 mph 1008.1mb 28f
10:30pm 14 17 mph 1007.1mb 29f
10:20pm 11 13 mph 1007.8mb 29f
10:18pm 9 17 mph 1008.1mb 29f
10:10pm 9 16 mph 1007.8mb 30f
10:00pm 8 13 mph 1007.8mb 29f
9:50pm 9 13 mph 1007.8mb 30f
9:40pm 10 15 mph 1006.8mb 30f
9:30pm 11 17 mph 1006.8mb 28f
9:20pm 15 21 mph 1006.8mb 28f
9:18pm 16 25 mph 1007.1mb 28f
9:10pm 17 25 mph 1007.1mb 28f